KH6HHG Weather Reports


Display with metric or nautical units.
time (UTC)temp
F
wind
direction
speed
MPH
gust
MPH
rain 1hr
in
rain 24hr
in
rain mn
in
humidity
%
barometer
mb
20171123051042 63 61 0.0 2.0 0.19 0.55 0.55 93 1016.0
20171123050542 64 58 0.0 0.0 0.15 0.51 0.51 94 1016.0
20171123050041 63 40 0.0 0.0 0.11 0.47 0.47 94 1015.8
20171123045541 63 34 0.0 0.0 0.09 0.45 0.45 93 1015.6
20171123045041 63 35 0.0 0.0 0.09 0.44 0.44 93 1015.5
20171123044541 63 24 0.0 0.0 0.08 0.43 0.43 93 1015.6
20171123044041 63 58 0.0 0.0 0.08 0.43 0.43 93 1015.4
20171123043541 63 58 0.0 0.0 0.08 0.43 0.43 93 1015.3
20171123043042 63 59 0.0 0.0 0.07 0.42 0.42 93 1015.4
20171123042542 64 63 0.0 0.0 0.07 0.42 0.42 93 1015.4
20171123042042 64 49 0.0 0.0 0.05 0.40 0.40 93 1015.4
20171123041541 64 30 0.0 0.0 0.03 0.38 0.38 93 1015.4
20171123041042 64 21 0.0 0.0 0.01 0.36 0.36 93 1015.3
20171123040542 64 6 0.0 0.0 0.02 0.36 0.36 93 1015.2
20171123040042 64 23 0.0 0.0 0.03 0.36 0.36 93 1015.2
20171123035542 64 50 0.0 0.0 0.03 0.36 0.36 92 1015.1
20171123035041 64 70 0.0 0.0 0.02 0.35 0.35 92 1015.0
20171123034541 64 77 0.0 0.0 0.02 0.35 0.35 92 1015.1
20171123034041 64 77 0.0 0.0 0.02 0.35 0.35 91 1014.9
20171123033541 64 78 0.0 0.0 0.02 0.35 0.35 92 1014.8
20171123033041 65 78 0.0 0.0 0.02 0.35 0.35 92 1014.7
20171123032542 65 79 0.0 0.0 0.02 0.35 0.35 91 1014.7
20171123032042 65 75 0.0 0.0 0.02 0.35 0.35 91 1014.7
20171123031542 65 69 0.0 0.0 0.02 0.35 0.35 91 1014.7
20171123031042 65 75 0.0 0.0 0.02 0.35 0.35 91 1014.7
20171123030541 65 79 0.0 0.0 0.01 0.34 0.34 91 1014.6
20171123030041 65 79 0.0 0.0 0.00 0.33 0.33 91 1014.6
20171123025541 65 79 0.0 0.0 0.00 0.33 0.33 91 1014.6
20171123025041 65 79 0.0 0.0 0.01 0.33 0.33 92 1014.5
20171123024543 65 79 0.0 0.0 0.03 0.33 0.33 91 1014.5
20171123024042 65 79 0.0 0.0 0.03 0.33 0.33 91 1014.5
20171123023542 65 79 0.0 0.0 0.03 0.33 0.33 92 1014.5
20171123023042 65 81 0.0 0.0 0.05 0.33 0.33 92 1014.5
20171123022542 65 83 0.0 0.0 0.05 0.33 0.33 92 1014.4
20171123022042 65 73 0.0 0.0 0.06 0.33 0.33 92 1014.4
20171123021541 64 75 0.0 3.0 0.06 0.33 0.33 92 1014.4
20171123021041 64 70 0.0 0.0 0.07 0.33 0.33 92 1014.4
20171123020541 64 79 0.0 0.0 0.08 0.33 0.33 92 1014.3
20171123020043 64 79 0.0 0.0 0.09 0.33 0.33 91 1014.3
20171123015542 64 71 0.0 0.0 0.10 0.33 0.33 91 1014.3
20171123015042 64 69 1.0 5.0 0.09 0.32 0.32 92 1014.3
20171123014542 64 49 0.0 0.0 0.07 0.30 0.30 92 1014.3
20171123014042 64 65 0.0 0.0 0.07 0.30 0.30 91 1014.3
20171123013542 64 68 0.0 0.0 0.07 0.30 0.30 91 1014.2
20171123013041 65 82 0.0 0.0 0.05 0.28 0.28 91 1014.3
20171123012543 65 62 0.0 0.0 0.05 0.28 0.28 92 1014.2
20171123012043 65 81 0.0 0.0 0.04 0.27 0.27 91 1014.1
20171123011542 65 70 0.0 0.0 0.05 0.27 0.27 90 1014.1
20171123011042 66 56 0.0 0.0 0.05 0.26 0.26 90 1014.2
20171123010542 66 74 0.0 0.0 0.07 0.25 0.25 89 1014.1
20171123010041 66 56 0.0 0.0 0.10 0.24 0.24 90 1014.0
20171123005541 66 70 0.0 0.0 0.12 0.23 0.23 90 1013.9
20171123005041 66 72 0.0 0.0 0.12 0.23 0.23 90 1013.8
20171123004543 66 77 0.0 0.0 0.12 0.23 0.23 90 1013.8
20171123004043 66 78 0.0 0.0 0.12 0.23 0.23 90 1013.9
20171123003543 66 83 0.0 0.0 0.12 0.23 0.23 89 1013.9
20171123003042 66 67 0.0 0.0 0.12 0.23 0.23 90 1013.8
20171123002542 66 76 0.0 1.0 0.12 0.23 0.23 90 1013.7
20171123002042 67 67 0.0 0.0 0.12 0.23 0.23 88 1013.7
20171123001542 67 42 0.0 2.0 0.11 0.22 0.22 88 1013.8
20171123001043 68 33 0.0 0.0 0.10 0.21 0.21 85 1013.8
20171123000542 69 35 3.0 8.0 0.07 0.18 0.18 82 1013.9
20171123000042 71 37 2.0 5.0 0.03 0.14 0.14 81 1013.9
20171122235542 73 23 6.0 8.0 0.00 0.11 0.11 78 1013.7
20171122235042 74 59 1.0 1.0 0.00 0.11 0.11 72 1013.7
20171122234541 74 50 0.0 3.0 0.00 0.11 0.11 74 1013.7
20171122234041 73 36 0.0 3.0 0.00 0.11 0.11 74 1013.7
20171122233541 73 75 0.0 0.0 0.00 0.11 0.11 75 1013.7
20171122233043 72 75 0.0 1.0 0.01 0.11 0.11 78 1013.7
20171122232543 71 83 0.0 0.0 0.01 0.12 0.11 77 1013.7
20171122232042 71 74 0.0 0.0 0.01 0.12 0.11 78 1013.8
20171122231542 71 84 0.0 3.0 0.01 0.12 0.11 79 1014.0
20171122231042 71 75 1.0 5.0 0.01 0.12 0.11 81 1014.3
20171122230542 70 61 0.0 0.0 0.01 0.12 0.11 83 1014.3
20171122230041 69 57 0.0 0.0 0.01 0.12 0.11 84 1014.4
20171122225541 68 64 0.0 0.0 0.01 0.12 0.11 85 1014.5
20171122225041 68 70 0.0 3.0 0.01 0.12 0.11 87 1014.5
20171122224543 68 71 0.0 0.0 0.01 0.12 0.11 86 1014.6
20171122224043 68 62 0.0 0.0 0.01 0.12 0.11 86 1014.7
20171122223543 69 61 0.0 0.0 0.01 0.12 0.11 84 1014.8
20171122223042 69 58 0.0 0.0 0.01 0.11 0.10 82 1014.9
20171122222542 70 47 0.0 0.0 0.03 0.11 0.10 79 1014.9
20171122222042 70 75 0.0 0.0 0.03 0.11 0.10 79 1014.9
20171122221542 69 60 0.0 1.0 0.03 0.11 0.10 81 1014.8
20171122221043 69 63 0.0 2.0 0.03 0.11 0.10 83 1014.9
20171122220543 69 71 0.0 0.0 0.03 0.11 0.10 86 1014.9
20171122220042 68 68 0.0 0.0 0.03 0.11 0.10 87 1015.0
20171122215542 68 71 0.0 0.0 0.03 0.11 0.10 89 1015.2
20171122215042 67 70 0.0 0.0 0.03 0.11 0.10 88 1015.2
20171122214542 67 70 0.0 0.0 0.03 0.11 0.10 86 1015.3
20171122214042 68 71 0.0 0.0 0.03 0.11 0.10 83 1015.4
20171122213541 69 70 0.0 0.0 0.03 0.11 0.10 82 1015.5
20171122213041 70 72 0.0 0.0 0.02 0.10 0.09 79 1015.4
20171122212543 71 60 0.0 0.0 0.00 0.08 0.07 76 1015.3
20171122212043 72 62 0.0 3.0 0.00 0.08 0.07 75 1015.2
20171122211543 71 66 1.0 1.0 0.00 0.08 0.07 76 1015.3
20171122211042 70 78 0.0 1.0 0.00 0.08 0.07 76 1015.3
20171122210542 70 60 0.0 3.0 0.00 0.08 0.07 76 1015.3
20171122210042 70 55 0.0 0.0 0.00 0.08 0.07 79 1015.4
20171122205542 70 65 0.0 0.0 0.00 0.08 0.07 78 1015.4
20171122205041 70 66 0.0 0.0 0.00 0.08 0.07 76 1015.4
20171122204543 70 61 0.0 0.0 0.00 0.08 0.07 76 1015.4
20171122204043 70 70 0.0 0.0 0.00 0.08 0.07 76 1015.4
20171122203543 70 75 0.0 0.0 0.00 0.08 0.07 76 1015.5
20171122203043 69 78 0.0 0.0 0.00 0.08 0.07 79 1015.5
20171122202542 69 81 0.0 0.0 0.00 0.08 0.07 79 1015.6
20171122202042 68 84 0.0 0.0 0.00 0.08 0.07 78 1015.6
20171122201542 68 83 0.0 0.0 0.00 0.08 0.07 80 1015.6
20171122201042 67 89 0.0 0.0 0.00 0.08 0.07 82 1015.6
20171122200541 67 89 0.0 0.0 0.00 0.08 0.07 81 1015.7
20171122200043 67 71 0.0 0.0 0.00 0.09 0.07 82 1015.7
20171122195543 68 71 0.0 0.0 0.00 0.09 0.07 83 1015.6
20171122195043 68 69 0.0 0.0 0.00 0.09 0.07 83 1015.7
20171122194542 68 69 0.0 0.0 0.00 0.09 0.07 83 1015.7
20171122194042 68 70 0.0 0.0 0.00 0.09 0.07 81 1015.7
20171122193542 68 83 0.0 0.0 0.00 0.09 0.07 82 1015.7
20171122193042 67 92 0.0 0.0 0.00 0.09 0.07 85 1015.6
20171122192542 66 104 0.0 0.0 0.00 0.09 0.07 87 1015.6
20171122192042 65 106 0.0 0.0 0.00 0.09 0.07 88 1015.6
20171122191543 65 106 0.0 0.0 0.00 0.09 0.07 88 1015.5
20171122191043 64 107 0.0 0.0 0.00 0.09 0.07 89 1015.5
20171122190543 64 104 0.0 0.0 0.00 0.09 0.07 89 1015.5
20171122190043 64 101 0.0 0.0 0.00 0.09 0.07 90 1015.4
20171122185543 64 100 0.0 0.0 0.00 0.09 0.07 90 1015.4
20171122185042 64 102 0.0 0.0 0.00 0.09 0.07 90 1015.3
20171122184542 64 102 0.0 0.0 0.00 0.09 0.07 92 1015.2
20171122184042 63 102 0.0 0.0 0.01 0.09 0.07 92 1015.0
20171122183542 63 102 0.0 0.0 0.05 0.09 0.07 92 1014.9
20171122183043 63 102 0.0 0.0 0.06 0.09 0.07 92 1014.9
20171122182543 63 102 0.0 0.0 0.06 0.09 0.07 91 1014.9
20171122182043 63 102 0.0 0.0 0.06 0.10 0.07 91 1014.8
20171122181543 63 102 0.0 0.0 0.06 0.10 0.07 92 1014.7
20171122181043 63 102 0.0 0.0 0.06 0.10 0.07 92 1014.7
20171122180543 63 102 0.0 0.0 0.06 0.10 0.07 92 1014.7
20171122180042 62 102 0.0 0.0 0.07 0.10 0.07 92 1014.7
20171122175542 62 102 0.0 0.0 0.07 0.10 0.07 92 1014.7
20171122175042 62 102 0.0 0.0 0.07 0.10 0.07 92 1014.6
20171122174542 62 102 0.0 0.0 0.07 0.10 0.07 91 1014.6
20171122174044 62 102 0.0 0.0 0.06 0.09 0.06 91 1014.7
20171122173543 62 102 0.0 0.0 0.02 0.05 0.02 90 1014.6
20171122173043 62 102 0.0 0.0 0.01 0.04 0.01 90 1014.5
20171122172543 62 102 0.0 0.0 0.01 0.04 0.01 90 1014.4
20171122172043 62 102 0.0 0.0 0.01 0.04 0.01 90 1014.3
20171122171543 62 102 0.0 0.0 0.01 0.04 0.01 90 1014.2
20171122171042 62 102 0.0 0.0 0.01 0.04 0.01 90 1014.1
20171122170542 61 102 0.0 0.0 0.01 0.04 0.01 90 1014.0
20171122170042 61 102 0.0 0.0 0.00 0.03 0.00 90 1014.0
20171122165544 61 102 0.0 0.0 0.00 0.03 0.00 90 1014.0
20171122165043 61 100 0.0 0.0 0.00 0.03 0.00 90 1013.9
20171122164543 61 96 0.0 0.0 0.00 0.03 0.00 91 1013.9
20171122164043 61 96 0.0 0.0 0.00 0.03 0.00 91 1013.9
20171122163543 61 94 0.0 0.0 0.00 0.03 0.00 91 1013.8
20171122163043 61 90 0.0 0.0 0.00 0.03 0.00 91 1013.7
20171122162544 61 86 0.0 0.0 0.00 0.03 0.00 91 1013.6
20171122162044 61 85 0.0 0.0 0.00 0.03 0.00 90 1013.5
20171122161543 61 103 0.0 0.0 0.00 0.03 0.00 90 1013.4
20171122161043 61 108 0.0 0.0 0.00 0.03 0.00 89 1013.4
20171122160543 61 108 0.0 0.0 0.00 0.03 0.00 89 1013.4
20171122160043 61 108 0.0 0.0 0.00 0.03 0.00 88 1013.4
20171122155542 61 108 0.0 0.0 0.00 0.03 0.00 88 1013.3
20171122155042 61 108 0.0 0.0 0.00 0.03 0.00 88 1013.2
20171122154542 61 108 0.0 0.0 0.00 0.03 0.00 88 1013.1
20171122154042 61 108 0.0 0.0 0.00 0.03 0.00 88 1013.0
20171122153544 61 108 0.0 0.0 0.00 0.03 0.00 88 1013.0
20171122153043 61 109 0.0 0.0 0.00 0.03 0.00 89 1012.9
20171122152544 61 108 0.0 0.0 0.00 0.03 0.00 90 1012.9
20171122152043 62 107 0.0 0.0 0.00 0.03 0.00 90 1012.8
20171122151543 62 108 0.0 0.0 0.00 0.03 0.00 90 1012.8
20171122151043 62 108 0.0 0.0 0.00 0.03 0.00 91 1012.9
20171122150543 62 106 0.0 0.0 0.00 0.03 0.00 91 1012.9
20171122150042 62 106 0.0 0.0 0.00 0.03 0.00 91 1012.8
20171122145542 62 106 0.0 0.0 0.00 0.03 0.00 91 1012.9
20171122145044 62 106 0.0 0.0 0.00 0.03 0.00 91 1012.8
20171122144544 62 106 0.0 0.0 0.00 0.03 0.00 91 1012.8
20171122144044 61 106 0.0 0.0 0.00 0.03 0.00 92 1012.8
20171122143543 61 106 0.0 0.0 0.00 0.03 0.00 91 1012.8
20171122143043 61 106 0.0 0.0 0.00 0.03 0.00 91 1012.8
20171122142543 61 106 0.0 0.0 0.00 0.03 0.00 91 1012.8
20171122142043 61 106 0.0 0.0 0.00 0.03 0.00 91 1012.7
20171122141543 61 106 0.0 0.0 0.00 0.03 0.00 91 1012.7
20171122141042 61 106 0.0 0.0 0.00 0.03 0.00 91 1012.7
20171122140542 61 106 0.0 0.0 0.00 0.03 0.00 91 1012.6
20171122140043 61 108 0.0 0.0 0.00 0.03 0.00 91 1012.6
20171122135543 61 108 0.0 0.0 0.00 0.03 0.00 91 1012.6
20171122135043 61 108 0.0 0.0 0.00 0.03 0.00 90 1012.6
20171122134543 61 108 0.0 0.0 0.00 0.03 0.00 89 1012.6
20171122134043 61 108 0.0 0.0 0.00 0.03 0.00 88 1012.6
20171122133542 61 108 0.0 0.0 0.00 0.03 0.00 88 1012.5
20171122133042 61 108 0.0 0.0 0.00 0.03 0.00 88 1012.5
20171122132544 61 108 0.0 0.0 0.00 0.03 0.00 88 1012.5
20171122132044 61 108 0.0 0.0 0.00 0.03 0.00 87 1012.5
20171122131544 61 108 0.0 0.0 0.00 0.03 0.00 87 1012.5
20171122131044 61 108 0.0 0.0 0.00 0.03 0.00 87 1012.4
20171122130543 61 108 0.0 0.0 0.00 0.03 0.00 87 1012.5
20171122130043 61 108 0.0 0.0 0.00 0.03 0.00 87 1012.4
20171122125543 61 108 0.0 0.0 0.00 0.03 0.00 88 1012.4
20171122125043 61 108 0.0 0.0 0.00 0.03 0.00 89 1012.4
20171122124542 61 108 0.0 0.0 0.00 0.03 0.00 88 1012.5
20171122124042 61 108 0.0 0.0 0.00 0.03 0.00 88 1012.6
20171122123545 62 108 0.0 0.0 0.00 0.03 0.00 89 1012.6
20171122123044 62 91 0.0 0.0 0.00 0.03 0.00 90 1012.7
20171122122544 62 87 0.0 0.0 0.00 0.03 0.00 90 1012.9
20171122122044 62 86 0.0 0.0 0.00 0.03 0.00 90 1012.9
20171122121543 62 86 0.0 0.0 0.00 0.03 0.00 90 1013.0
20171122121044 61 87 0.0 0.0 0.00 0.03 0.00 89 1013.1
20171122120543 61 87 0.0 0.0 0.00 0.03 0.00 89 1013.1
20171122120043 61 87 0.0 0.0 0.00 0.03 0.00 88 1013.1
20171122115543 61 87 0.0 0.0 0.00 0.03 0.00 88 1013.1
20171122115042 61 87 0.0 0.0 0.00 0.03 0.00 88 1013.1
20171122114544 61 87 0.0 0.0 0.00 0.03 0.00 89 1013.1
20171122114044 61 87 0.0 0.0 0.00 0.03 0.00 89 1013.2
20171122113544 61 87 0.0 0.0 0.00 0.03 0.00 89 1013.2
20171122113044 61 87 0.0 0.0 0.00 0.03 0.00 89 1013.2
20171122112043 61 87 0.0 0.0 0.00 0.03 0.00 89 1013.2
20171122111543 61 87 0.0 0.0 0.00 0.03 0.00 89 1013.2
20171122111043 61 87 0.0 0.0 0.00 0.03 0.00 88 1013.3
20171122110543 61 87 0.0 0.0 0.00 0.03 0.00 88 1013.3
20171122110043 61 87 0.0 0.0 0.00 0.03 0.00 88 1013.3
20171122105542 61 87 0.0 0.0 0.00 0.03 0.00 88 1013.2
20171122105044 61 87 0.0 0.0 0.00 0.03 0.00 90 1013.2
20171122104544 61 87 0.0 0.0 0.00 0.03 0.00 90 1013.3
20171122104044 61 87 0.0 0.0 0.00 0.03 0.00 91 1013.4
20171122103544 61 87 0.0 0.0 0.00 0.03 0.00 91 1013.4
20171122103044 61 87 0.0 0.0 0.00 0.03 0.00 91 1013.6
20171122102543 60 87 0.0 0.0 0.00 0.04 0.00 90 1013.6
20171122102043 60 87 0.0 0.0 0.00 0.04 0.00 89 1013.7
20171122101543 60 87 0.0 0.0 0.00 0.04 0.00 89 1013.7
20171122101043 60 87 0.0 0.0 0.00 0.04 0.00 89 1013.8
20171122100543 60 87 0.0 0.0 0.00 0.04 0.00 89 1013.8
20171122100044 60 87 0.0 0.0 0.00 0.04 0.00 89 1013.7
20171122095544 60 87 0.0 0.0 0.00 0.04 0.04 88 1013.7
20171122095044 60 87 0.0 0.0 0.00 0.04 0.04 88 1013.8
20171122094544 60 87 0.0 0.0 0.00 0.04 0.04 88 1013.8
20171122094044 60 87 0.0 0.0 0.00 0.04 0.04 88 1013.8
20171122093543 59 87 0.0 0.0 0.00 0.04 0.04 88 1013.9
20171122093043 59 87 0.0 0.0 0.00 0.04 0.04 88 1013.9
20171122092543 59 87 0.0 0.0 0.00 0.04 0.04 88 1013.8
20171122091543 59 86 0.0 0.0 0.00 0.04 0.04 88 1013.8
20171122091045 59 86 0.0 0.0 0.00 0.04 0.04 88 1013.8
20171122090544 60 86 0.0 0.0 0.00 0.04 0.04 88 1013.8
20171122090044 60 86 0.0 0.0 0.00 0.04 0.04 88 1013.9
20171122085544 60 86 0.0 0.0 0.00 0.04 0.04 88 1013.9
20171122085044 60 86 0.0 0.0 0.00 0.04 0.04 88 1013.9
20171122084544 60 86 0.0 0.0 0.00 0.04 0.04 88 1014.0
20171122084043 59 86 0.0 0.0 0.00 0.04 0.04 87 1013.9
20171122083543 59 86 0.0 0.0 0.00 0.04 0.04 87 1014.0
20171122083043 59 86 0.0 0.0 0.00 0.04 0.04 87 1014.1
20171122082543 60 86 0.0 0.0 0.00 0.04 0.04 87 1014.1
20171122082045 60 86 0.0 0.0 0.00 0.04 0.04 87 1014.0
20171122081544 60 86 0.0 0.0 0.00 0.04 0.04 87 1013.9
20171122081044 60 86 0.0 0.0 0.00 0.04 0.04 87 1013.9
20171122080544 60 86 0.0 0.0 0.00 0.04 0.04 87 1013.8
20171122080044 60 86 0.0 0.0 0.00 0.04 0.04 87 1013.9
20171122075543 60 86 0.0 0.0 0.00 0.04 0.04 88 1013.9
20171122075044 60 86 0.0 0.0 0.00 0.04 0.04 88 1013.8
20171122074544 60 86 0.0 0.0 0.00 0.04 0.04 87 1013.8
20171122074046 60 86 0.0 0.0 0.00 0.04 0.04 87 1013.8
20171122073543 60 86 0.0 0.0 0.00 0.04 0.04 87 1013.8
20171122073043 60 86 0.0 0.0 0.00 0.04 0.04 87 1013.9
20171122072543 60 86 0.0 0.0 0.00 0.04 0.04 87 1013.8
20171122072043 60 86 0.0 0.0 0.00 0.04 0.04 87 1013.8
20171122071545 60 86 0.0 0.0 0.00 0.04 0.04 87 1013.7
20171122071044 60 85 0.0 0.0 0.00 0.04 0.04 87 1013.9
20171122070544 60 85 0.0 0.0 0.00 0.04 0.04 87 1013.8
20171122070044 60 85 0.0 0.0 0.00 0.04 0.04 88 1013.8
20171122065544 60 85 0.0 0.0 0.00 0.04 0.04 88 1013.8
20171122065043 60 85 0.0 0.0 0.00 0.04 0.04 88 1013.8
20171122064543 60 85 0.0 0.0 0.00 0.04 0.04 87 1013.8
20171122064043 60 85 0.0 0.0 0.00 0.04 0.04 87 1013.8
20171122063543 60 85 0.0 0.0 0.00 0.04 0.04 88 1013.8
20171122063043 60 81 0.0 0.0 0.00 0.04 0.04 87 1013.7
20171122062543 61 81 0.0 0.0 0.00 0.04 0.04 87 1013.6
20171122062043 61 81 0.0 0.0 0.00 0.04 0.04 87 1013.6
20171122061545 61 81 0.0 0.0 0.00 0.04 0.04 87 1013.5
20171122061045 61 81 0.0 0.0 0.00 0.04 0.04 87 1013.5
20171122060544 61 81 0.0 0.0 0.00 0.04 0.04 86 1013.4
20171122060044 61 81 0.0 0.0 0.00 0.04 0.04 86 1013.3
20171122055543 61 80 0.0 0.0 0.00 0.04 0.04 86 1013.3
20171122055043 61 81 0.0 0.0 0.00 0.10 0.04 86 1013.2
20171122054543 61 80 0.0 0.0 0.00 0.10 0.04 85 1013.1
20171122054045 61 80 0.0 0.0 0.00 0.10 0.04 84 1013.0
20171122053545 62 80 0.0 0.0 0.00 0.10 0.04 84 1012.9
20171122053044 62 80 0.0 0.0 0.00 0.10 0.04 84 1012.8
20171122052544 62 80 0.0 0.0 0.00 0.10 0.04 84 1012.8
20171122052044 62 80 0.0 0.0 0.00 0.10 0.04 84 1012.7
20171122051544 62 80 0.0 0.0 0.00 0.10 0.04 83 1012.6